Weather in Sarni

Ukraine / Rovno District     51°20′06″N   26°37′02″E
temp.,
°C
wind,
m/s
gust,
m/s
humid.,
%
clouds,
%
prec.,
mm/h
press.,
hPa
HPBL,
m
9 march, tue
tue923:00−4nw37750 0.0 1018280
02:00−4wnw35778 0.0 1020245
05:00−4nnw257566 0.0 1020378
08:00−4nnw357443 0.0 1021569
11:00−2n345178 0.0 10231079
14:00−1n334288 0.0 10231247
17:00−1nne2243100 0.0 10231235
20:00−3ene355692 0.0 1024166
10 march, wed
wed1023:00−3e355997 0.0 1025306
02:00−4ese256195 0.0 1025209
05:00−5se256849 0.0 1024169
08:00−4se356470 0.0 1024278
11:000se334548 0.0 10241042
14:00+1se223849 0.0 10231586
17:00+1se1245100 0.0 1022518
20:00−2se236797 0.0 102487
11 march, thu
thu1123:00−3ese248691 0.0 1024107
02:00−2se359495 0.2 1024297
05:00−3ese259552 0.1 1024178
08:00−2se468764 0.1 1024430
11:000sse567094 0.1 1024922
14:00+1sse576897 0.2 1023982
17:00+1s586596 0.1 10211102
20:000sse5106998 0.1 10211008
12 march, fri
fri1223:00−1sse71460100 0.0 1019805
02:00−1s81557100 0.0 1017763
05:00−2s91692100 0.5 1014670
08:00−1s91594100 2.3 1012735
11:00+1ssw91496100 2.0 1011782
14:00+3sw61298100 4.8 1010544
17:00+5wsw51282100 1.0 1010517
20:00+2wsw5138669 1.1 1013380
13 march, sat
sat1323:000wsw379466 0.0 1015151
02:00−1sw359368 0.0 101597
05:00−1ssw389223 0.0 1015183
08:00+1ssw398727 0.0 1015223
11:00+5ssw4881100 0.0 1014427
14:00+7ssw697598 0.1 1012854
17:00+5ssw5118890 0.4 1012458
20:00+3wsw499595 2.0 1013329